Weather in Yakovlevo

Russia / Lipetsk Oblast     52°07′22″N   38°35′23″E
temp.,
°C
wind,
m/s
gust,
m/s
humid.,
%
clouds,
%
prec.,
mm/h
press.,
hPa
HPBL,
m
29 july, thu
thu2900:00+19e357599 0.5 101284
03:00+17sw33815 0.5 101230
06:00+18sw23833 0.0 101167
09:00+23w33625 0.0 1010461
12:00+28w454931 0.0 10101480
15:00+29wnw5639100 0.0 10092492
18:00+27nw245211 0.0 1008362
21:00+24s11581 0.0 100811
30 july, fri
fri3000:00+21ssw466621 0.0 1008102
03:00+21s336715 0.0 100742
06:00+20ssw49778 0.1 1007226
09:00+26wsw455787 0.3 1007554
12:00+30wsw564782 0.0 10071383
15:00+31w674280 0.0 10062565
18:00+29wnw67490 0.1 10051447
21:00+23nw4968100 0.1 1007179
31 july, sat
sat3100:00+21nw2373100 0.1 100856
03:00+22nw357031 0.1 1008136
06:00+19wnw34780 0.0 1009103
09:00+24wnw45503 0.0 1010623
12:00+28wnw45380 0.0 10101934
15:00+29w57355 0.0 10102487
18:00+28w46401 0.0 10091912
21:00+23wsw3354100 0.0 101128
1 august, sun
sun100:00+21wnw226012 0.0 101215
03:00+19wsw22645 0.0 101211
06:00+20ssw11641 0.0 101311
09:00+27s34450 0.0 1013516
12:00+31ssw45310 0.0 10122463
15:00+32sw46290 0.0 10112738
18:00+31ssw45330 0.0 1010837
21:00+25s34480 0.0 101148
2 august, mon
mon200:00+23s33563 0.0 101040
03:00+22ssw346181 0.0 101158
06:00+21s37701 0.0 1011146
09:00+29ssw56440 0.0 1010625
12:00+33ssw683160 0.0 10082833
15:00+34sw672671 0.0 10073181
18:00+33wsw25335 0.0 10061905
21:00+27ssw364293 0.0 1006116